Weather History for KELN - November, 2012

Change the Weather History Date:

Thursday, November 29, 2012

  Actual Average (KYKM) Record (KYKM)
Temperature  
Mean Temperature 37 °F 32 °F  
Max Temperature 41 °F 41 °F 62 °F (1995)
Min Temperature 33 °F 24 °F 10 °F (1985)
Degree Days  
Heating Degree Days 28 33  
Month to date heating degree days 797  
Since 1 July heating degree days 1501  
Cooling Degree Days 0 0  
Month to date cooling degree days 0  
Year to date cooling degree days 472  
Moisture  
Dew Point 31 °F    
Average Humidity 84    
Maximum Humidity 89    
Minimum Humidity 73    
Precipitation  
Precipitation 0.02 in 0.04 in 0.25 in (2007)
Month to date precipitation 1.00  
Year to date precipitation 6.67  
Snow  
Snow 0.00 in 0.20 in 5.60 in (2007)
Month to date snowfall 3.2  
Year to date snowfall 11.9  
Since 1 July snowfall 3.3  
Snow Depth -    
Sea Level Pressure  
Sea Level Pressure 29.77 in    
Wind  
Wind Speed 1 mph (ESE)    
Max Wind Speed 7 mph    
Max Gust Speed -    
Visibility 6 miles    
Events Fog , Rain , Snow    
T = Trace of Precipitation, MM = Missing Value Source: NWS Daily Summary

Daily Weather History Graph

Daily Weather History Graph

Search for Another Location

Airport or City:

Trip Planner

Search our weather history database for the weather conditions in past years. The results will help you decide how hot, cold, wet, or windy it might be!

Date:

Astronomy

Nov. 29, 2012 Rise Set
Actual Time 7:25 AM PST 4:15 PM PST
Civil Twilight 6:50 AM PST 4:50 PM PST
Nautical Twilight 6:12 AM PST 5:28 PM PST
Astronomical Twilight 5:36 AM PST 6:04 PM PST
Moon 5:22 PM PST (11/29) 8:16 AM PST (11/29)
Length of Visible Light 9h 59m
Length of Day
8h 50m
Full, 99% of the Moon is Illuminated
Nov 29
Full
Dec 6
Last Quarter
Dec 13
New
Dec 19
First Quarter
Dec 28
Full

Hourly Weather History & Observations

Time (PST) Temp. Windchill Dew Point Humidity Pressure Visibility Wind Dir Wind Speed Gust Speed Precip Events Conditions
12:33 AM 33.8 °F - 30.2 °F 87% 29.83 in 2.5 mi Calm Calm - N/A   Overcast
12:41 AM 33.8 °F - 30.2 °F 87% 29.83 in 1.5 mi Calm Calm - N/A   Overcast
12:45 AM 33.8 °F - 30.2 °F 87% 29.83 in 2.0 mi Calm Calm - N/A   Overcast
12:53 AM 34.0 °F - 30.0 °F 85% 29.87 in 2.5 mi Calm Calm - N/A   Overcast
1:04 AM 33.8 °F - 30.2 °F 87% 29.83 in 1.8 mi Calm Calm - N/A   Overcast
1:11 AM 33.8 °F - 30.2 °F 87% 29.83 in 0.8 mi Calm Calm - N/A   Overcast
1:21 AM 33.8 °F - 30.2 °F 87% 29.83 in 0.2 mi Calm Calm - N/A Fog Fog
1:53 AM 33.1 °F - 30.0 °F 89% 29.88 in 0.5 mi Calm Calm - N/A Fog Fog
2:02 AM 33.8 °F - 30.2 °F 87% 29.84 in 1.2 mi Calm Calm - N/A   Overcast
2:13 AM 33.8 °F - 30.2 °F 87% 29.84 in 2.5 mi Calm Calm - N/A   Overcast
2:21 AM 33.8 °F - 30.2 °F 87% 29.84 in 4.0 mi Calm Calm - N/A   Overcast
2:30 AM 33.8 °F - 28.4 °F 81% 29.83 in 2.5 mi Calm Calm - N/A   Haze
2:35 AM 33.8 °F - 28.4 °F 81% 29.84 in 1.0 mi Calm Calm - N/A   Haze
2:43 AM 33.8 °F - 30.2 °F 87% 29.84 in 0.8 mi Calm Calm - N/A   Overcast
2:46 AM 33.8 °F - 30.2 °F 87% 29.84 in 1.2 mi Calm Calm - N/A   Overcast
2:53 AM 33.1 °F - 30.0 °F 89% 29.88 in 2.5 mi Calm Calm - N/A   Overcast
3:03 AM 33.8 °F - 30.2 °F 87% 29.83 in 1.0 mi Calm Calm - N/A   Mist
3:10 AM 33.8 °F - 30.2 °F 87% 29.83 in 0.5 mi Calm Calm - N/A Fog Fog
3:53 AM 33.1 °F - 30.0 °F 89% 29.87 in 0.2 mi Calm Calm - N/A Fog Fog
4:36 AM 33.8 °F 29.6 °F 30.2 °F 87% 29.81 in 1.2 mi East 4.6 mph - N/A   Overcast
4:44 AM 33.8 °F 30.8 °F 30.2 °F 87% 29.81 in 3.0 mi ESE 3.5 mph - N/A   Overcast
4:53 AM 33.1 °F 30.0 °F 30.0 °F 89% 29.86 in 4.0 mi ESE 3.5 mph - N/A   Overcast
5:43 AM 33.8 °F - 28.4 °F 81% 29.80 in 5.0 mi Calm Calm - N/A   Haze
5:51 AM 33.8 °F - 28.4 °F 81% 29.79 in 5.0 mi Calm Calm - N/A   Haze
5:53 AM 34.0 °F 31.0 °F 28.9 °F 82% 29.83 in 5.0 mi ENE 3.5 mph - N/A   Haze
6:48 AM 33.8 °F 28.6 °F 30.2 °F 87% 29.79 in 9.0 mi ESE 5.8 mph - N/A   Overcast
6:53 AM 34.0 °F 28.8 °F 30.0 °F 85% 29.84 in 8.0 mi SE 5.8 mph - N/A   Overcast
7:27 AM 33.8 °F - 30.2 °F 87% 29.79 in 7.0 mi Calm Calm - N/A   Overcast
7:50 AM 33.8 °F - 30.2 °F 87% 29.79 in 6.0 mi Calm Calm - N/A   Overcast
7:53 AM 34.0 °F - 30.9 °F 89% 29.83 in 5.0 mi Calm Calm - N/A   Overcast
8:46 AM 33.8 °F 29.6 °F 30.2 °F 87% 29.77 in 4.0 mi SE 4.6 mph - 0.01 in Rain Light Rain
8:53 AM 34.0 °F 31.0 °F 30.9 °F 89% 29.81 in 5.0 mi ESE 3.5 mph - 0.01 in   Overcast
9:27 AM 33.8 °F 30.8 °F 30.2 °F 87% 29.77 in 3.0 mi SSE 3.5 mph - 0.00 in Snow Light Snow
9:53 AM 35.1 °F 32.2 °F 30.9 °F 85% 29.81 in 6.0 mi ESE 3.5 mph - 0.01 in Rain Light Rain
10:53 AM 37.0 °F 34.5 °F 32.0 °F 82% 29.75 in 10.0 mi ESE 3.5 mph - 0.00 in   Overcast
11:31 AM 37.4 °F 32.1 °F 30.2 °F 75% 29.73 in 10.0 mi East 6.9 mph - N/A   Overcast
11:53 AM 37.0 °F 31.6 °F 32.0 °F 82% 29.77 in 10.0 mi ENE 6.9 mph - N/A   Overcast
12:02 PM 37.4 °F 32.1 °F 32.0 °F 81% 29.74 in 10.0 mi East 6.9 mph - N/A   Overcast
12:37 PM 37.4 °F 32.1 °F 32.0 °F 81% 29.72 in 10.0 mi ENE 6.9 mph - N/A   Mostly Cloudy
12:50 PM 37.4 °F 32.8 °F 32.0 °F 81% 29.72 in 10.0 mi East 5.8 mph - N/A   Mostly Cloudy
12:53 PM 37.9 °F 32.7 °F 32.0 °F 79% 29.76 in 10.0 mi SE 6.9 mph - N/A   Mostly Cloudy
1:53 PM 41.0 °F - 33.1 °F 73% 29.70 in 10.0 mi Calm Calm - N/A   Overcast
2:04 PM 39.2 °F 37.0 °F 32.0 °F 75% 29.67 in 10.0 mi SW 3.5 mph - N/A   Overcast
2:53 PM 39.0 °F - 32.0 °F 76% 29.73 in 10.0 mi Calm Calm - N/A   Overcast
3:53 PM 39.0 °F 36.8 °F 33.1 °F 79% 29.70 in 10.0 mi WSW 3.5 mph - N/A   Overcast
4:12 PM 39.2 °F 37.0 °F 33.8 °F 81% 29.66 in 10.0 mi NW 3.5 mph - N/A   Overcast
4:53 PM 37.9 °F - 32.0 °F 79% 29.69 in 10.0 mi Calm Calm - 0.00 in   Mostly Cloudy
5:14 PM 37.4 °F - 32.0 °F 81% 29.66 in 10.0 mi Calm Calm - N/A   Mostly Cloudy
5:53 PM 37.9 °F - 33.1 °F 83% 29.69 in 10.0 mi Calm Calm - N/A   Overcast
6:27 PM 37.4 °F - 33.8 °F 87% 29.65 in 10.0 mi Calm Calm - 0.00 in Rain Light Rain
6:53 PM 37.0 °F 34.5 °F 33.1 °F 86% 29.67 in 10.0 mi NNW 3.5 mph - 0.00 in Rain Light Rain
7:53 PM 37.0 °F - 33.1 °F 86% 29.65 in 9.0 mi Calm Calm - 0.00 in   Overcast
8:53 PM 37.9 °F - 33.1 °F 83% 29.65 in 8.0 mi Calm Calm - N/A   Overcast
9:22 PM 37.4 °F - 33.8 °F 87% 29.63 in 8.0 mi Calm Calm - N/A   Overcast
9:53 PM 37.9 °F 34.4 °F 33.1 °F 83% 29.63 in 8.0 mi NE 4.6 mph - N/A   Overcast
10:53 PM 37.9 °F - 33.1 °F 83% 29.62 in 10.0 mi Calm Calm - N/A   Overcast
11:20 PM 37.4 °F - 33.8 °F 87% 29.58 in 10.0 mi Calm Calm - N/A   Overcast
11:53 PM 37.9 °F - 34.0 °F 86% 29.58 in 7.0 mi Calm Calm - N/A   Overcast